Miscellaneous Local Product
Issued by NWS North Platte, NE

Home | Current Version | Previous Version | Text Only | Print | Product List | Glossary On
Versions: 1 2 3 4 5 6 7 8 9 10 11 12 13 14 15 16 17 18 19 20 21 22 23 24 25 26 27 28 29 30 31 32 33 34 35 36 37 38 39 40 41 42 43 44 45 46 47 48 49 50
000
AXUS43 KLBF 281310
MISLBF


WESTERN AND NORTH CENTRAL NEBRASKA HOURLY WEATHER ROUNDUP
NATIONAL WEATHER SERVICE NORTH PLATTE NE
800 AM CDT THU JUL 28 2016

NOTE: "FAIR" INDICATES FEW OR NO CLOUDS BELOW 12,000 FEET WITH NO
SIGNIFICANT WEATHER AND/OR OBSTRUCTIONS TO VISIBILITY.

NOTE: STATIONS NOT REPORTING VARIABLES SUCH AS SKY/WEATHER OR
PRESSURE ARE PROVIDED BY RAWS AND APRS NETWORKS AND ARE NOT UNDER
NATIONAL WEATHER SERVICE QUALITY CONTROL.

...OBSERVATIONS IN AND NEAR THE EASTERN PANHANDLE OF NEBRASKA...

CITY           SKY/WX    TMP DP  RH WIND       PRES   REMARKS
PINE RIDGE     CLOUDY    62  58  86 CALM      30.10R
CHADRON        CLOUDY    66  54  65 VRB7      30.11R
ALLIANCE       CLOUDY    60  58  92 SE5       30.18R
SIDNEY         CLOUDY    61  57  87 NE18G28   30.21R
CRESCENT LAKE    N/A     60  57  90 NE12G31     N/A
$$

...OBSERVATIONS IN NORTHERN NEBRASKA AND FAR SOUTHERN SOUTH DAKOTA...

CITY           SKY/WX    TMP DP  RH WIND       PRES   REMARKS
WINNER         FAIR      63  59  87 CALM      30.13R
VALENTINE      PTSUNNY   59  57  93 MISG      30.16R
THEDFORD       MOSUNNY   62  60  92 N3        30.17R
AINSWORTH      MOSUNNY   60  59  98 NW5       30.16R
O`NEILL        SUNNY     66  64  93 CALM      30.13R
ORD            MOSUNNY   63  60  90 NW5       30.11R
BROKEN BOW     SUNNY     61  60  97 CALM      30.12R
VALENTINE NWR    N/A     59  58  96 NW5         N/A
BUTTE            N/A     65  61  88 CALM        N/A
HALSEY           N/A     60  58  93 CALM        N/A
EWING            N/A     67  65  92 CALM        N/A
$$

...OBSERVATIONS IN SOUTHWEST NEBRASKA AND FAR NORTHEAST COLORADO...

CITY           SKY/WX    TMP DP  RH WIND       PRES   REMARKS
WRAY           FAIR      64  55  72 CALM      30.12R
HOLYOKE        FAIR      61  59  94 E3        30.12F
IMPERIAL       CLOUDY    65  63  93 SE5       30.11S
OGALLALA       PTSUNNY   65  60  84 N7        30.17R
NORTH PLATTE   SUNNY     63  59  87 CALM      30.13R
MCCOOK         MOSUNNY   66  63  90 NE8       30.11R
LEXINGTON      MOSUNNY   63  60  88 NE6       30.11S
STAPLETON        N/A     61  59  92 CALM        N/A
GOTHENBURG       N/A     64  58  81 CALM        N/A
CALLAWAY         N/A     58  57  97 CALM        N/A
$$

...OBSERVATIONS IN CENTRAL LINCOLN COUNTY AREA...

CITY           SKY/WX    TMP DP  RH WIND       PRES   REMARKS
N.P. AIRPORT   SUNNY     63  59  87 CALM      30.13R
N.P. DOWNTOWN    N/A     64  59  85 CALM        N/A
N.P. SOUTHEAST   N/A     63  59  86 CALM        N/A
N.P. HILLCREST   N/A     63  59  86 E10         N/A
$$

...SOME OBSERVATIONS FROM AROUND THE REGION...

CITY           SKY/WX    TMP DP  RH WIND       PRES   REMARKS
DENVER         MOSUNNY   61  55  81 SW5       30.18R
LARAMIE        CLOUDY    53  49  86 NE6       30.28R
CHEYENNE       FOG       59  58  96 NE9       30.25R VSB 3/4
SCOTTSBLUFF    CLOUDY    62  56  80 E14       30.17F
RAPID CITY     MOSUNNY   62  59  90 NE7       30.12R
BISMARCK       CLOUDY    63  58  83 E6        30.15S
PIERRE         PTSUNNY   64  58  80 E8        30.10S
SIOUX FALLS    MOSUNNY   66  60  81 N6        30.06S
OMAHA          MOSUNNY   72  67  84 N7        30.03R
GRAND ISLAND   MOSUNNY   65  61  87 N6        30.09S
KANSAS CITY    CLOUDY    73  71  93 N6        29.98R
WICHITA        PTSUNNY   80  71  74 NW10      30.00F
OKLAHOMA CITY  MOSUNNY   75  73  93 CALM      30.02R
DALLAS         CLOUDY    81  71  71 SW7       29.99R
AMARILLO       SUNNY     65  60  84 N8        30.18R
DODGE CITY     SUNNY     67  61  81 NW14      30.11R
HAYS           CLOUDY    70  57  64 N3        30.08F
GOODLAND       MOSUNNY   67  54  63 S13       30.10R
$$




USA.gov is the U.S. government's official web portal to all federal, state and local government web resources and services.